#timestamp,LO_Frequency,Hit,StdDev 
1701752415.5,286046999.8,N
1701752435.3,286047001.2,N
1701752455.2,286047002.1,N
1701752475.9,286047000.3,N
1701752495.7,286046999.3,N
1701752515.6,286046991.6,N
1701752535.4,286046984.0,N
1701752555.2,286046980.3,N
1701752575.1,286046978.1,N
1701752576.0,286046978.1,N
1701752595.8,286046974.8,N
1701752615.7,286046975.8,N
1701752635.5,286046972.5,N
1701752655.3,286046971.0,N
1701752675.2,286046972.1,N
1701752695.0,286046969.1,N
1701752695.9,286046969.1,N
1701752715.8,286046961.5,N
1701752735.6,286046954.6,Y
1701752755.4,286046959.6,P
1701752775.3,286046956.6,N
1701752795.1,286046959.4,N
1701752815.8,286046959.2,N
1701752835.7,286046960.6,Y
1701752855.5,286046994.0,P
1701752875.4,286046991.7,N
1701752895.2,286046993.3,N
1701752915.0,286046995.0,N
1701752915.9,286046995.0,N
1701752935.8,286047000.4,N
1701752955.6,286047000.6,N
1701752975.4,286047000.1,N
1701752995.3,286046997.7,N
1701753015.1,286047002.8,N
1701753035.9,286047007.1,N
1701753055.7,286047009.6,N
1701753075.5,286047019.8,N
1701753095.4,286047032.6,N
1701753115.2,286047036.0,N
1701753135.0,286047038.1,N
1701753135.9,286047038.1,N
1701753155.8,286047042.1,N
1701753175.6,286047044.9,N
1701753195.5,286047046.1,N
1701753215.3,286047044.0,N
1701753235.1,286047043.6,N
1701753255.9,286047041.9,N
1701753275.7,286047033.6,N
1701753295.5,286047030.9,N
1701753315.4,286047025.5,N
1701753335.2,286047023.1,N
1701753355.1,286047021.9,N
1701753356.0,286047021.9,N
1701753375.8,286047023.6,N
1701753395.6,286047030.0,N
1701753415.5,286047033.1,N
1701753435.3,286047025.3,N
1701753455.1,286047024.1,N
1701753475.9,286047026.7,N
1701753495.7,286047032.5,N
1701753515.6,286047033.3,N
1701753535.4,286047037.4,N
1701753555.2,286047032.9,N
1701753575.1,286047029.2,N
1701753576.0,286047029.2,Y
1701753595.8,286046990.8,P
1701753615.7,286046983.9,N
1701753635.5,286046978.0,N
1701753655.3,286046977.8,N
1701753675.2,286046976.2,N
1701753695.9,286046978.4,N
1701753715.7,286046980.9,N
1701753735.6,286046983.1,N
1701753755.4,286046986.1,N
1701753775.3,286046985.0,N
1701753795.1,286046983.7,N
1701753796.0,286046983.7,N
1701753815.8,286046982.7,N
1701753835.7,286046983.5,N
1701753855.5,286046983.5,N
1701753875.3,286046982.1,N
1701753895.2,286046983.7,N
1701753915.0,286046986.9,N
1701753915.9,286046986.9,N
1701753935.8,286046991.3,N
1701753955.6,286046991.2,N
1701753975.4,286046990.9,N
1701753995.3,286046995.4,N
1701754015.1,286046998.2,N
1701754035.8,286047009.9,N
1701754055.7,286047013.3,N
1701754075.5,286047017.0,N
1701754095.4,286047013.4,N
1701754115.2,286047007.7,N
1701754135.0,286047002.9,N
1701754135.9,286047002.9,N
1701754155.8,286046996.9,N
1701754175.6,286046988.8,N
1701754195.5,286046985.8,N
1701754215.3,286046977.3,N
1701754235.1,286046969.5,N
1701754255.9,286046966.4,N
1701754275.7,286046965.4,N
1701754295.5,286046963.5,N
1701754315.4,286046958.7,N
1701754335.2,286046952.6,Y
1701754355.1,286046960.3,P
1701754356.0,286046960.3,N
1701754375.8,286046962.3,N
1701754395.6,286046955.0,Y
1701754415.5,286046983.8,P
1701754435.3,286046982.0,N
1701754455.2,286046979.3,N
1701754475.9,286046980.2,Y
1701754495.7,286047003.8,P
1701754515.6,286047005.1,N
1701754535.4,286047000.2,N
1701754555.3,286046997.2,N
1701754575.1,286046998.9,N
1701754576.0,286046998.9,N
1701754595.8,286047001.8,N
1701754615.7,286047006.2,N
1701754635.5,286047012.7,N
1701754655.3,286047017.9,N
1701754675.2,286047017.7,N
1701754695.0,286047022.9,N
1701754695.9,286047022.9,N
1701754715.8,286047022.7,N
1701754735.6,286047021.0,N
1701754755.4,286047020.4,N
1701754775.3,286047012.4,N
1701754795.1,286047006.0,N
1701754815.8,286046995.8,N
1701754835.7,286046997.6,N
1701754855.5,286046993.8,N
1701754875.4,286046991.6,N
1701754895.2,286046988.6,N
1701754915.0,286046988.6,N
1701754915.9,286046988.6,N
1701754935.8,286046994.1,N
1701754955.6,286046995.2,N
1701754975.4,286046994.2,N
1701754995.3,286046996.7,N
1701755015.1,286047000.2,N
1701755035.9,286047002.3,N
1701755055.7,286047000.2,N
1701755075.5,286047001.5,N
1701755095.4,286047001.3,N
1701755115.2,286047000.1,N
1701755135.0,286047002.0,N
1701755135.9,286047002.0,N
1701755155.8,286046998.2,N
1701755175.6,286046996.5,N
1701755195.5,286046993.6,N
1701755215.3,286046994.7,N
1701755235.1,286046992.3,N
1701755255.9,286046994.7,N
1701755275.7,286046988.6,N
1701755295.5,286046987.6,N
1701755315.4,286046987.6,N
1701755335.2,286046989.2,N
1701755355.1,286046996.3,N
1701755356.0,286046996.3,N
1701755375.8,286046999.3,N
1701755395.6,286047003.9,N
1701755415.5,286047003.3,N
1701755435.3,286047010.8,N
1701755455.2,286047008.4,N
1701755475.9,286047005.0,N
1701755495.7,286047002.2,N
1701755515.6,286047006.8,N
1701755535.4,286047000.1,N
1701755555.2,286046995.3,N
1701755575.1,286046994.3,N
1701755576.0,286046994.3,N
1701755595.8,286046992.6,N
1701755615.7,286046997.1,N
1701755635.5,286046989.4,N
1701755655.3,286046984.1,N
1701755675.2,286046986.2,N
1701755695.0,286046990.5,N
1701755695.9,286046990.5,N
1701755715.8,286046994.4,N
1701755735.6,286046997.6,N
1701755755.4,286047002.3,N
1701755775.3,286047009.2,N
1701755795.1,286047008.3,N
1701755815.8,286047006.4,N
1701755835.7,286047002.6,N
1701755855.5,286047001.2,N
1701755875.4,286046993.5,N
1701755895.2,286046992.5,N
1701755915.0,286046991.5,N
1701755915.9,286046991.5,N
1701755935.8,286046987.1,N
1701755955.6,286046991.1,N
1701755975.4,286046995.3,N
1701755995.3,286046998.7,N
